AO-07 1 07530U 74089B 25350.31583848 -.00000027 00000-0 12201-3 0 9997 2 07530 101.9965 356.6211 0012382 119.9036 255.3708 12.53694266337600 UO-11 1 14781U 84021B 25350.21796526 .00000944 00000-0 10316-3 0 9990 2 14781 97.7812 313.1924 0009208 72.6385 287.5839 14.90154234229873 AO-27 1 22825U 93061C 25350.14534614 .00000117 00000-0 61886-4 0 9993 2 22825 98.7143 52.4207 0007318 278.3119 81.7234 14.30877933680827 FO-29 1 24278U 96046B 25350.17409678 -.00000040 00000-0 -41750-5 0 9993 2 24278 98.5461 218.8486 0349294 211.0519 146.9553 13.53262914448415 GO-32 1 25397U 98043D 25350.21904655 .00000095 00000-0 61187-4 0 9998 2 25397 98.9923 333.5115 0001961 51.8010 308.3345 14.24378120425280 ISS 1 25544U 98067A 25350.08808596 .00006404 00000-0 12171-3 0 9998 2 25544 51.6306 125.8981 0003174 255.6781 104.3856 15.49613604543374 NO-44 1 26931U 01043C 25350.29856494 .00000190 00000-0 10190-3 0 9995 2 26931 67.0515 357.2751 0007424 269.7379 90.2872 14.31856837264261 SO-50 1 27607U 02058C 25350.31348273 .00001689 00000-0 21941-3 0 9997 2 27607 64.5541 334.5530 0072390 295.9334 63.4324 14.82406516237346 CO-55 1 27844U 03031E 25350.31354611 .00000373 00000-0 18066-3 0 9998 2 27844 98.6763 356.1705 0009585 3.3014 356.8227 14.24182384165643 CO-57 1 27848U 03031J 25350.00063952 .00000308 00000-0 15464-3 0 9990 2 27848 98.6791 355.7209 0009837 21.7811 338.3784 14.23489696165313 RS-22 1 27939U 03042A 25350.38810514 .00000742 00000-0 12388-3 0 9992 2 27939 98.3363 164.6845 0012202 124.7896 348.2039 14.72980432188637 CO-58 1 28895U 05043F 25350.31648954 .00001499 00000-0 24726-3 0 9996 2 28895 98.2718 137.4546 0015297 67.7115 292.5711 14.71914728 74844 CO-65 1 32785U 08021C 25350.35688742 .00005186 00000-0 34959-3 0 9997 2 32785 97.8078 323.4965 0007867 295.9928 64.0489 15.07088525957632 CO-66 1 32791U 08021J 25349.92123127 .00013520 00000-0 53845-3 0 9992 2 32791 97.7443 335.1764 0001650 190.0708 170.0496 15.25365799959286 RS-30 1 32953U 08025A 25350.33211454 .00000040 00000-0 21458-3 0 9992 2 32953 82.5016 109.1884 0018892 353.1643 6.9177 12.43172251796976 SRMSAT 1 37841U 11058D 25350.33859538 .00000420 00000-0 84505-4 0 9999 2 37841 19.9718 86.1692 0011849 353.1268 48.2887 14.11512684731958 ZACUBE-1 1 39417U 13066B 25350.32953910 .00002912 00000-0 24034-3 0 9997 2 39417 97.8056 306.8800 0042012 135.5785 224.8820 14.99116660653316 Delfi-N3xt 1 39428U 13066N 25350.29613969 .00005082 00000-0 47776-3 0 9991 2 39428 97.8343 266.1753 0080842 93.8270 267.2196 14.91873374647325 GOMX-1 1 39430U 13066Q 25350.24021096 .00002154 00000-0 33438-3 0 9990 2 39430 97.6592 197.1465 0129519 305.3014 53.6135 14.68603579643055 LO-74 1 39440U 13066AA 25350.36071261 .00003012 00000-0 29360-3 0 9996 2 39440 97.8707 294.0275 0057985 273.6187 85.8401 14.92006833649716 AO-73 1 39444U 13066AE 25350.17650766 .00006402 00000-0 43526-3 0 9998 2 39444 97.8067 313.4970 0040782 104.5183 256.0572 15.06016431652088 DTUSAT-2 1 40030U 14033W 25350.11152517 .00006606 00000-0 39073-3 0 9999 2 40030 98.0752 331.7679 0009557 130.1363 230.0705 15.11789378624996 EO-80 1 40032U 14033Y 25350.18817552 .00006088 00000-0 35957-3 0 9996 2 40032 98.0634 331.2376 0009812 80.3639 279.8698 15.11874682624986 LILACSAT-2 1 40908U 15049K 25350.36367422 .00012506 00000-0 26835-3 0 9999 2 40908 97.4914 15.8577 0007592 183.4874 176.6323 15.44834749567463 IO-86 1 40931U 15052B 25151.18580175 .00001241 00000-0 78118-4 0 9996 2 40931 6.0006 24.0987 0012733 338.8432 21.1169 14.78805930523159 Horyu-4 1 41340U 16012D 25350.22316354 .00039298 00000-0 64997-3 0 9992 2 41340 30.9943 286.0585 0006923 267.6970 92.2887 15.50915683542092 Lapan A3 1 41603U 16040E 25350.35355698 .00003443 00000-0 11519-3 0 9998 2 41603 97.1425 347.7785 0009284 319.5312 40.5239 15.31582475526818 CAS-2T 1 41847U 16066G 25350.22581212 .00001089 00000-0 16361-3 0 9999 2 41847 98.4035 62.9322 0342992 324.5795 33.3041 14.44139367478389 TechnoSat 1 42829U 17042E 25350.32249878 .00003028 00000-0 22596-3 0 9997 2 42829 97.4046 150.3740 0018187 2.4349 357.6963 15.03443759459215 AO-91 1 43017U 17073E 25350.09316707 .00008446 00000-0 40059-3 0 9994 2 43017 97.4953 216.2131 0159187 238.7907 119.7638 15.08938442437741 S-Net D 1 43186U 18014G 25350.32209859 .00004382 00000-0 24223-3 0 9992 2 43186 97.5491 251.3812 0007004 299.4461 60.6071 15.14398343431062 S-Net B 1 43187U 18014H 25350.26413756 .00004667 00000-0 25786-3 0 9990 2 43187 97.5498 251.3041 0007615 293.2851 66.7579 15.14373685431058 S-Net A 1 43188U 18014J 25350.25571709 .00004404 00000-0 24333-3 0 9999 2 43188 97.5506 251.4727 0007493 294.3346 65.7103 15.14404183431056 S-Net C 1 43189U 18014K 25350.26711338 .00004783 00000-0 26418-3 0 9991 2 43189 97.5521 251.5299 0008822 284.0555 75.9696 15.14368822429601 Ten-Koh 1 43677U 18084G 25350.24284335 .00002551 00000-0 20040-3 0 9996 2 43677 98.0744 170.0048 0009218 14.9211 345.2283 15.01841454388693 PO-101 1 43678U 18084H 25350.38908471 .00002190 00000-0 18384-3 0 9993 2 43678 98.1023 173.9981 0007655 36.7912 323.3834 14.99455527388817 QO-100 1 43700U 18090A 25350.20499236 .00000167 00000-0 00000-0 0 9996 2 43700 0.0190 6.9159 0000937 274.7986 262.9875 1.00270408 25848 MinXSS-2 1 43758U 18099A 25350.14592136 .00021286 00000-0 63353-3 0 9992 2 43758 97.4802 57.5571 0009149 199.1956 160.8944 15.34698818385946 AO-95 1 43770U 18099N 25350.14607111 .00008352 00000-0 36886-3 0 9996 2 43770 97.4680 46.4037 0008147 272.2731 87.7572 15.21962756385337 SNUSat 2 1 43782U 18099AA 25350.08581882 .00007037 00000-0 34556-3 0 9999 2 43782 97.4359 41.4352 0010286 209.8684 150.1964 15.18336723385210 SnugLite 1 43784U 18099AC 25350.13234690 .00008552 00000-0 37350-3 0 9997 2 43784 97.4170 41.5400 0002574 185.6145 174.5063 15.22358243385421 ITASat 1 1 43786U 18099AE 25350.12997949 .00005253 00000-0 27555-3 0 9992 2 43786 97.4326 40.3709 0011784 270.5392 89.4491 15.16124110385141 EAGLET 1 1 43790U 18099AJ 25350.08192619 .00003874 00000-0 23457-3 0 9997 2 43790 97.4528 39.5336 0010009 256.4642 103.5473 15.11148743384663 ESEO 1 43792U 18099AL 25350.07597431 .00002108 00000-0 15874-3 0 9992 2 43792 97.4224 30.1238 0011357 235.8371 124.1778 15.03491217384286 JO-97 1 43803U 18099AX 25350.15785853 .00012003 00000-0 45582-3 0 9995 2 43803 97.4427 47.9633 0006150 188.4241 171.6896 15.26955128385632 Suomi 100 1 43804U 18099AY 25350.13697373 .00009097 00000-0 38469-3 0 9998 2 43804 97.4486 46.5712 0010493 199.3265 160.7576 15.23394727385502 ISAT 1 43879U 18111D 25350.30609943 .00029283 00000-0 68512-3 0 9991 2 43879 97.5910 270.1472 0003662 229.1220 130.9710 15.42093063382795 UWE-4 1 43880U 18111E 25350.28511282 .00018744 00000-0 56075-3 0 9999 2 43880 97.5860 266.9075 0007208 260.5383 99.5045 15.34582013382624 Sparrow 1 43881U 18111F 25350.22061364 .00034834 00000-0 75367-3 0 9998 2 43881 97.6093 273.8342 0002273 312.1085 47.9969 15.44397091382902 Prox-1 1 44339U 19036A 25350.06714746 .00010409 00000-0 11525-2 0 9992 2 44339 23.9957 252.7326 0006565 79.8646 280.2593 14.85272226346167 Taurus 1 1 44530U 19059C 25350.38085330 .00007668 00000-0 13091-2 0 9998 2 44530 98.6219 139.4339 0009064 163.5103 196.6398 14.69214584331770 TO-108 1 44881U 19093C 25350.33639744 .00000443 00000-0 56643-4 0 9990 2 44881 97.7759 61.8874 0013088 334.0870 25.9688 14.86110543324257 FloripaSat 1 1 44885U 19093G 25350.30962770 .00004703 00000-0 36979-3 0 9991 2 44885 97.8042 78.5196 0010123 325.0413 35.0145 15.01315833325189 RS-44 1 44909U 19096E 25350.29770200 .00000012 00000-0 52370-5 0 9998 2 44909 82.5213 101.2446 0217168 211.7504 147.0351 12.79746179278957 SALSAT 1 46495U 20068K 25349.94064692 .00006472 00000-0 25165-3 0 9998 2 46495 97.8781 337.3859 0009149 216.2619 143.7999 15.26381318287375 CSS (TIANHE-1) 1 48274U 21035A 25350.30145476 .00017088 00000-0 21422-3 0 9999 2 48274 41.4684 355.0821 0007856 60.8888 299.2736 15.59326293264580 TUBIN 1 48900U 21059X 25349.78845228 .07315651 27141-5 56139-3 0 9990 2 48900 97.6553 178.8839 0007270 265.1302 94.9166 16.40417761249824 CUTE 1 49263U 21088D 25350.17744932 .00026934 00000-0 34938-3 0 9999 2 49263 97.4352 73.1806 0004428 254.5576 105.5191 15.58818162233839 TeikyoSat 4 1 49396U 21102B 25350.05108658 .00002125 00000-0 13936-3 0 9990 2 49396 97.3897 21.5264 0011718 196.5293 163.5556 15.08657261225101 Z-Sat 1 49399U 21102E 25350.34038957 .00003310 00000-0 17280-3 0 9992 2 49399 97.3586 26.1759 0017658 159.5398 200.6547 15.16469976225716 KOSEN 1 1 49402U 21102H 25350.11826209 .00006134 00000-0 25778-3 0 9995 2 49402 97.3475 30.9382 0015917 130.0056 230.2582 15.23670177226112 HO-113 1 50466U 21131B 25350.32995407 .00000628 00000-0 20871-3 0 9990 2 50466 98.5050 78.7330 0003110 293.0690 67.0171 14.41118105208774 SNUGLITE 2 1 52899U 22065F 25350.35662255 .00001262 00000-0 25074-3 0 9999 2 52899 98.1930 130.8690 0006615 232.4188 127.6414 14.63846631184244 UmKA 1 (RS40S) 1 57172U 23091G 25350.30132288 .00005519 00000-0 27237-3 0 9993 2 57172 97.5344 44.7507 0014459 41.9897 318.2442 15.18219007136237 CubeBel-2 (EU11S) 1 57175U 23091K 25350.33213892 .00009740 00000-0 40273-3 0 9995 2 57175 97.5342 47.3007 0011824 44.7951 315.4239 15.24124683136401 RS-38S 1 57189U 23091Z 25350.30444850 .00012008 00000-0 42231-3 0 9994 2 57189 97.5368 51.7541 0008448 11.2359 348.9068 15.29473802136670 SONATE-2 1 59112U 24043Q 25350.34428391 .00022655 00000-0 47664-3 0 9990 2 59112 97.5324 126.7303 0009109 148.9866 211.1922 15.45268476 99535 MO-122 1 60209U 24125G 25350.08870127 .00025304 00000-0 50944-3 0 9998 2 60209 97.2523 200.4630 0014432 165.3176 194.8496 15.46463710 81125 GRBBeta 1 60237U 24128C 25350.14037125 .00003847 00000-0 27707-3 0 9991 2 60237 61.9889 137.6585 0056098 97.2581 263.4892 15.04791621 78708 Curium One 1 60242U 24128H 25349.91028585 .00007171 00000-0 44915-3 0 9994 2 60242 61.9781 133.2650 0055937 94.0390 266.7100 15.08955553 78768 ROBUSTA-3A 1 60243U 24128J 25350.11394350 .00005756 00000-0 37026-3 0 9997 2 60243 61.9857 134.0957 0056102 91.5356 269.2165 15.08269333 78775 CatSat 1 60246U 24125J 25350.11711812 .00029557 00000-0 70726-3 0 9992 2 60246 97.2314 197.4655 0034205 132.2228 228.1931 15.40790054 79048 HYPERVIEW-1G (RS66S) 1 61772U 24199AP 25350.29807900 .00033945 00000-0 64561-3 0 9997 2 61772 97.3212 219.7780 0008045 220.5082 139.5570 15.48136575106168 AO-123 1 61781U 24199AY 25350.33037769 .00008676 00000-0 28233-3 0 9999 2 61781 97.3254 215.7410 0012894 241.1259 118.8689 15.32028438105893 ZIMSAT 2 1 61783U 24199BA 25350.35455509 .00210619 00000-0 13938-2 0 9996 2 61783 97.3082 223.5014 0004329 170.0354 190.0997 15.74924289109579 HADES-R (SO-124) 1 62690U 25009CK 25349.78262861 .00119717 00000-0 14669-2 0 9996 2 62690 97.3870 72.5224 0001089 260.3917 99.7217 15.59953125 51250 HYDRA-T 1 62692U 25009CM 25350.20573713 .00161555 00000-0 18106-2 0 9995 2 62692 97.3866 73.1751 0001558 274.6268 85.4812 15.62145593 51335 JINJUSat 1B 1 63210U 25052A 25350.19360384 .00012467 00000-0 47549-3 0 9997 2 63210 97.4208 242.3274 0005221 38.5928 321.5683 15.26806437 42111 NUSHSAT 1 1 63211U 25052B 25350.25202811 .00014873 00000-0 54845-3 0 9995 2 63211 97.4188 242.5118 0005329 41.6019 318.5625 15.27881203 42132 TEVEL2-4 1 63213U 25052D 25350.25443802 .00013532 00000-0 50976-3 0 9996 2 63213 97.4111 242.0588 0004852 56.1293 304.0407 15.27200780 42123 TEVEL2-5 1 63214U 25052E 25350.19454719 .00013331 00000-0 50339-3 0 9999 2 63214 97.4104 241.9864 0004850 56.1595 304.0105 15.27122682 42112 TEVEL2-6 1 63215U 25052F 25350.26748809 .00013509 00000-0 51079-3 0 9993 2 63215 97.4109 242.0472 0004994 55.7929 304.3782 15.27076342 42126 TEVEL2-1 1 63217U 25052H 25350.24538133 .00013389 00000-0 51132-3 0 9996 2 63217 97.4084 241.8332 0005281 64.1094 296.0688 15.26745992 42113 TEVEL2-3 1 63218U 25052J 25350.24453119 .00013317 00000-0 50823-3 0 9994 2 63218 97.4085 241.8379 0005312 65.1116 295.0674 15.26768885 42117 TEVEL2-2 1 63219U 25052K 25350.24614726 .00013227 00000-0 50515-3 0 9996 2 63219 97.4084 241.8335 0005283 65.5110 294.6680 15.26746842 42115 TEVEL2-9 1 63237U 25052AD 25350.27824693 .00011656 00000-0 46578-3 0 9993 2 63237 97.4148 241.5676 0009292 72.2331 287.9920 15.25242118 42089 TEVEL2-7 1 63238U 25052AE 25350.22689920 .00011689 00000-0 46918-3 0 9995 2 63238 97.4148 241.4904 0009422 72.5072 287.7195 15.25088269 42079 TEVEL2-8 1 63239U 25052AF 25350.23259564 .00011799 00000-0 47394-3 0 9995 2 63239 97.4150 241.4803 0009430 72.6545 287.5724 15.25062668 42077 HYDRA-W 1 63490U 25052BL 25350.20695200 .00054053 00000-0 12655-2 0 9993 2 63490 97.4064 244.0378 0011478 63.2098 297.0322 15.41873107 42256 HADES-ICM (SO-125) 1 63492U 25052BN 25350.20620693 .00046478 00000-0 11643-2 0 9997 2 63492 97.4074 243.7581 0011685 65.7622 294.4844 15.39856879 42233 Dragonfly 1 65729U 98067XH 25350.36069264 .00153726 00000-0 10798-2 0 9991 2 65729 51.6242 117.2037 0007067 301.2639 58.7667 15.73131629 13737 RSP-03 1 65732U 98067XL 25349.41416620 .00103156 00000-0 85709-3 0 9998 2 65732 51.6255 122.8946 0005631 270.0098 90.0254 15.69333488 13589 GHS-01 1 65733U 98067XM 25349.73472232 .00180872 00000-0 11102-2 0 9990 2 65733 51.6274 119.7831 0007600 301.7085 58.3173 15.76152522 13656 BOTAN 1 65942U 98067XP 25350.36201080 .00090028 00000-0 94318-3 0 9998 2 65942 51.6278 120.9830 0002853 270.5076 89.5591 15.63646784 10430 BEE-1000 1 66650U 25274A 25350.30769727 .00000999 00000-0 10485-3 0 9997 2 66650 97.7394 277.4297 0010513 238.1589 121.8606 14.91676067 2933 SPIRONE 1 66657U 25274H 25350.23060615 .00002402 00000-0 23947-3 0 9994 2 66657 97.7393 277.3758 0010578 262.6845 97.3172 14.92477724 2922 K-HERO 1 66660U 25274L 25350.29096818 .00002865 00000-0 28078-3 0 9991 2 66660 97.7397 277.4522 0012479 267.6220 92.3571 14.92982490 2934 SNUGLITE-III DURI 1 66661U 25274M 25350.28904089 .00002484 00000-0 24332-3 0 9995 2 66661 97.7397 277.4539 0013107 268.9233 91.0485 14.93117787 2930 SilverSat 1 66909U 98067XV 25349.62370561 .00048941 00000-0 79995-3 0 9991 2 66909 51.6296 128.0480 0004117 244.8670 115.1892 15.52037636 2061 CEVROSAT1 1 98526U 25248E 25313.13142326 .00000000 00000-0 19360-3 0 02 2 98526 45.4084 218.4764 0001315 254.8982 242.1062 15.17981583 02